Dewpoint
-3 -2 -1 -0 -2 -5 -1 1 2 0 -0 2 1 2 1 -1 -1 -1 -1 -2 -2 -1 -1 -2 -7 -14 -14 -16 -6 1 0 0 0 -1 -1 -1 -2 -6 -4 3 4 3 -1 -5
-2 -0 -2 -1 -0 0 1 2 1 0 -0 2 2 1 -0 -2 -2 -1 -2 -2 -2 -1 -1 -4 -10 -11 -12 -14 -3 -1 1 1 1 1 1 3 2 -0 -2 -2 3 3 -2 -3
-2 -1 -2 -0 2 2 1 2 2 2 2 1 1 -0 -3 -3 -1 -1 -1 -1 -1 -1 -1 -6 -9 -9 -12 -15 -7 -0 1 1 1 1 1 2 3 3 2 3 3 1 -0 -1
-1 -1 -0 2 3 1 1 -0 2 3 2 2 -0 2 -0 -1 -1 -1 -2 -2 -2 -2 -1 -4 -7 -7 -9 -16 -11 1 1 1 1 1 2 3 3 4 4 4 3 1 -1 -2
-1 -0 1 1 2 1 1 1 3 3 3 1 1 0 1 -1 -1 -2 -3 -3 -3 -2 -2 -4 -5 -5 -8 -13 -16 -4 1 1 1 1 3 3 4 4 3 3 2 1 0 -1
1 1 0 -0 1 1 1 1 -1 1 1 -1 -0 0 2 -0 -1 -3 -2 -2 -2 -2 -3 -3 -4 -3 -6 -11 -17 -10 -0 1 1 2 2 3 4 4 1 3 1 1 1 3
-0 2 1 1 1 1 0 -4 -3 -2 -0 1 -0 -0 2 -2 -3 -2 -2 -1 -0 -1 -3 -3 -3 -2 -5 -10 -18 -19 -12 1 2 1 3 3 4 4 5 4 2 4 3 4
-0 -5 2 1 1 1 2 -1 -2 -8 1 -0 1 3 0 -1 -2 -2 -1 -0 -0 -3 -4 -4 -3 -2 -4 -9 -19 -20 -18 -5 2 3 3 3 4 4 4 5 5 6 6 7
1 -2 -0 1 1 -0 3 2 1 2 0 2 -1 -2 -5 -3 -2 -2 -1 -1 -5 -6 -4 -4 -3 -2 -3 -8 -15 -20 -21 -19 1 3 3 3 3 3 4 4 4 5 5 5
0 -1 -2 1 1 1 1 1 0 -0 -5 -5 -4 -3 -3 -3 0 -2 -2 -4 -5 -5 -4 -5 -3 -1 -1 -5 -9 -19 -21 -21 -10 2 3 3 3 4 3 3 3 4 4 5
-0 -0 -4 2 2 2 3 3 2 -1 0 1 -0 -3 -4 -4 -2 -2 -3 -4 -4 -3 -6 -3 -6 -4 0 -2 -7 -14 -21 -21 -21 -19 1 3 3 4 4 4 3 4 4 4
0 0 1 -1 -1 -1 1 1 1 0 -4 1 1 -0 -5 -4 -3 -1 0 1 -0 -2 -4 -7 -6 -5 -4 -1 -3 -9 -19 -21 -22 -22 -20 -4 2 2 2 1 2 3 3 3
-1 -2 -3 -9 -5 -1 2 1 1 -2 -2 1 1 -4 -9 -4 -3 -3 -2 -5 -8 -7 -7 -7 -6 -6 -6 -2 -1 -7 -13 -21 -22 -22 -22 -22 -21 -14 -8 -3 -2 -8 -12 -13
-1 -2 -6 -7 -13 -2 1 0 1 1 1 1 0 -3 -8 -9 -8 -8 -8 -7 -7 -7 -7 -7 -7 -7 -8 -5 -1 -3 -9 -16 -21 -22 -22 -23 -24 -26 -26 -25 -24 -23 -22 -22
-1 1 -1 -1 -1 -2 -2 -2 -1 1 2 1 -4 -2 -5 -7 -7 -7 -7 -6 -6 -8 -8 -8 -8 -9 -9 -8 -3 -2 -4 -10 -19 -21 -22 -22 -23 -24 -24 -24 -23 -24 -24 -24
-1 0 -0 -0 -1 -1 0 -1 -1 -2 -2 0 0 -0 -5 -6 -6 -6 -7 -7 -7 -7 -8 -8 -9 -11 -11 -9 -6 -2 -2 -7 -13 -20 -21 -21 -22 -23 -25 -26 -26 -25 -22 -20
-0 0 -0 -1 -2 -2 -4 -5 -3 -1 -2 -2 -1 -4 -6 -6 -6 -6 -7 -8 -9 -11 -10 -8 -9 -10 -11 -10 -6 -3 -2 -4 -8 -16 -20 -20 -21 -22 -22 -23 -24 -24 -23 -21
-1 -1 -1 0 -3 -7 -10 -8 -5 -3 -3 -2 -3 -3 -4 -5 -6 -7 -11 -10 -8 -10 -12 -9 -9 -9 -10 -10 -6 -3 -2 -3 -5 -9 -18 -20 -20 -21 -21 -22 -23 -22 -21 -21
-2 -1 -1 -1 -0 -4 -8 -6 -5 -4 -8 -6 -4 -4 -5 -7 -7 -8 -8 -9 -8 -8 -10 -9 -9 -8 -8 -10 -9 -4 -2 -2 -3 -5 -10 -19 -20 -20 -20 -21 -22 -22 -22 -20
-3 -3 -1 -1 0 -2 -10 -10 -8 -9 -8 -13 -6 -6 -7 -8 -6 -6 -7 -7 -7 -7 -8 -9 -9 -9 -8 -9 -8 -7 -4 -2 -2 -3 -6 -14 -19 -19 -19 -19 -20 -21 -21 -21
-0 -1 1 -0 1 -1 -4 -7 -6 -6 -8 -14 -11 -10 -10 -7 -7 -6 -4 -3 -3 -4 -7 -8 -8 -8 -8 -8 -8 -8 -6 -4 -3 -2 -4 -9 -17 -18 -18 -18 -19 -20 -21 -21
0 1 1 0 1 2 -4 -5 -6 -8 -9 -9 -7 -5 -5 -5 -5 -3 -3 -3 -3 -3 -6 -6 -5 -6 -7 -7 -8 -8 -8 -7 -3 -3 -4 -6 -13 -17 -17 -17 -18 -19 -20 -20
-3 -2 -0 -1 -1 -4 -5 -5 -6 -6 -5 -5 -4 -3 -2 -3 -3 -3 -3 -2 -2 -2 -4 -4 -4 -5 -6 -7 -7 -7 -7 -7 -4 -3 -3 -5 -9 -15 -16 -16 -16 -18 -19 -19
-4 -5 -3 -3 -5 -5 -5 -5 -4 -4 -3 -2 -2 -2 -2 -2 -2 -2 -1 -2 -2 -2 -3 -3 -4 -5 -5 -6 -7 -7 -6 -6 -5 -3 -3 -4 -6 -11 -15 -15 -15 -17 -18 -19
-4 -3 -2 -3 -4 -4 -3 -3 -2 -2 -2 -2 -2 -2 -2 -2 -2 -1 -1 -2 -2 -2 -3 -3 -3 -3 -4 -4 -6 -6 -5 -5 -5 -4 -3 -4 -5 -8 -13 -14 -14 -16 -17 -18
-2 -1 -0 -0 -3 -2 -2 -2 -1 -1 -1 -1 -1 -2 -3 -3 -2 -2 -2 -2 -2 -2 -3 -2 -3 -3 -4 -4 -6 -6 -5 -4 -4 -4 -3 -3 -4 -6 -10 -13 -13 -14 -16 -17
Wind_Speed
7 7 3 1 2 3 4 1 3 4 3 7 4 14 20 21 13 15 12 9 8 8 9 12 10 15 17 20 24 27 29 27 27 26 26 26 26 27 30 31 27 28 27 28
6 4 2 1 1 2 1 1 4 5 4 3 6 19 11 5 4 6 8 10 10 10 11 10 12 15 18 20 23 24 25 21 21 24 26 25 25 23 22 22 22 20 19 21
5 3 2 1 1 2 2 2 1 4 6 2 8 7 4 3 5 8 12 12 13 13 14 13 14 15 18 18 21 22 21 19 21 22 24 23 23 24 22 14 14 13 13 13
4 1 1 1 1 2 3 3 1 5 4 3 4 4 5 4 8 6 12 14 17 16 17 15 15 17 18 17 18 20 19 20 21 21 23 20 18 22 17 13 8 5 8 12
2 4 2 1 1 2 4 1 2 1 1 3 1 3 7 3 5 5 7 8 9 12 16 15 15 17 17 17 16 19 18 18 19 20 17 18 15 16 15 9 7 7 8 8
1 1 2 2 1 2 2 2 4 3 1 2 2 3 6 4 6 3 4 8 10 12 14 16 15 16 16 16 15 15 17 17 17 18 13 15 14 15 14 6 5 7 10 6
5 2 1 2 1 1 6 6 3 5 4 4 1 3 10 6 7 6 10 16 12 13 15 16 17 16 16 15 14 14 15 16 15 16 14 13 12 12 11 7 6 5 3 4
3 6 1 2 1 3 3 4 4 4 2 5 2 6 6 5 8 12 15 17 13 12 14 16 15 15 15 14 14 14 13 15 13 14 13 12 10 10 11 9 6 1 3 5
3 3 1 2 1 3 0 3 2 3 2 3 3 8 10 6 10 15 16 8 8 8 12 14 14 15 15 14 13 13 12 11 12 11 10 9 8 7 10 10 8 4 2 5
3 3 1 2 2 4 1 5 2 3 2 5 5 6 6 5 6 4 5 8 8 9 12 16 17 16 16 16 14 14 13 10 10 9 8 9 7 6 7 7 7 4 2 3
3 3 3 1 4 7 2 1 2 3 4 3 3 7 7 7 6 7 10 11 11 13 20 22 22 19 18 16 16 14 13 10 9 9 8 7 6 5 3 3 4 3 0 2
2 3 4 7 1 1 1 5 5 4 3 2 2 8 5 8 8 8 16 18 21 24 29 28 26 23 19 17 16 16 13 11 9 8 7 6 6 5 4 4 5 6 7 9
4 1 4 5 4 2 4 5 4 4 2 6 5 7 1 4 6 9 15 24 32 35 31 22 18 17 17 18 17 16 15 12 10 9 8 7 6 5 5 5 6 5 6 7
7 3 6 6 3 2 4 4 6 6 3 4 11 13 18 16 14 21 28 32 33 29 21 17 15 19 18 17 18 18 17 14 12 11 10 9 8 8 7 7 7 6 6 6
3 4 3 7 12 9 13 14 10 13 14 8 3 10 19 12 12 25 30 34 28 28 18 14 16 16 17 18 19 19 17 17 15 13 11 10 10 9 8 8 7 7 7 7
1 3 1 5 9 7 12 18 18 19 19 19 25 30 27 41 30 23 30 31 29 26 23 18 15 19 21 19 19 20 19 18 18 16 14 13 11 10 9 8 7 8 8 8
5 3 3 6 4 9 8 7 12 7 5 15 15 19 13 14 11 19 30 31 29 29 26 22 17 21 25 21 18 21 20 19 20 19 17 15 14 12 10 9 8 8 8 8
6 5 2 4 7 2 5 2 8 11 8 19 13 12 16 19 28 26 23 20 33 33 29 20 16 22 25 23 18 18 21 23 23 21 20 19 17 15 13 12 11 10 9 8
6 5 2 3 2 9 6 3 6 6 7 11 18 14 21 24 17 19 16 21 30 31 31 17 19 23 26 23 19 18 21 24 26 24 23 21 19 18 16 14 13 12 11 10
4 1 4 2 3 6 2 2 4 4 6 4 14 12 13 7 9 9 31 34 33 33 30 28 27 30 28 25 22 22 22 26 29 24 23 22 21 20 18 16 15 13 12 12
4 2 12 8 4 10 9 10 4 2 5 3 7 10 11 5 16 35 35 38 38 40 27 24 31 33 30 26 24 24 25 29 27 25 23 23 24 22 20 19 17 15 14 13
7 7 5 4 4 10 12 6 7 3 8 12 28 30 31 33 36 42 46 45 45 41 33 30 35 32 31 28 27 25 25 24 25 27 26 26 26 25 23 21 19 17 16 15
3 6 4 10 7 4 5 11 16 28 30 35 38 37 37 36 38 41 44 44 45 37 35 38 37 33 28 28 29 28 25 23 24 28 29 28 27 26 25 24 21 20 18 17
5 9 5 1 8 16 19 30 35 33 31 32 38 45 45 45 43 41 38 41 46 45 41 40 37 31 31 30 29 29 25 23 24 28 30 29 29 28 27 25 23 22 20 18
5 7 7 6 14 29 23 23 35 42 43 42 41 41 42 44 44 43 40 41 41 42 44 42 37 36 36 34 30 28 27 25 26 28 30 31 30 30 29 27 24 22 19 18
10 21 13 15 24 24 29 36 43 50 45 39 38 41 43 42 41 41 42 41 40 40 40 39 38 39 35 30 29 27 25 27 29 32 33 33 32 32 30 28 25 24 22 20
Wind_Direction
27 64 81 140 62 120 116 136 270 266 295 330 252 278 287 297 267 259 260 254 263 281 304 314 315 321 321 323 328 330 329 332 335 331 332 319 311 287 275 265 267 273 268 259
28 80 212 262 63 82 85 323 296 280 271 304 302 298 290 276 236 238 257 249 259 278 310 308 313 316 322 331 332 333 336 339 346 346 346 341 334 324 299 276 265 270 265 256
115 160 154 99 64 33 266 218 303 241 316 232 317 290 317 273 276 266 260 263 264 278 298 299 306 314 323 325 334 338 343 343 345 343 336 332 336 335 326 296 285 281 261 249
88 158 117 125 216 141 331 192 327 310 27 284 24 279 296 316 304 271 282 269 272 273 280 293 302 313 320 325 334 343 346 346 345 340 344 343 336 331 336 317 315 299 278 276
212 163 179 241 231 127 240 312 263 226 146 13 297 67 268 359 293 275 293 291 296 275 274 284 294 305 317 323 333 346 345 345 346 347 357 352 337 336 332 359 347 332 316 289
134 208 188 241 303 216 351 69 36 50 331 26 266 111 281 207 209 251 260 277 287 280 278 283 291 299 313 323 331 340 348 347 346 350 359 355 346 346 0 297 352 336 339 342
342 238 270 213 342 35 47 51 336 351 8 222 280 34 248 256 233 222 266 288 283 274 280 286 292 301 309 321 329 335 339 349 349 350 359 357 3 7 357 3 318 333 344 20
80 331 189 143 184 181 47 126 141 236 303 282 25 236 251 235 260 246 273 277 281 287 290 294 298 298 304 314 324 329 339 354 349 350 360 10 4 11 13 6 3 28 155 138
58 285 266 187 143 105 11 37 184 91 319 317 242 282 289 269 262 260 256 264 281 302 308 307 304 301 301 306 316 322 330 345 352 353 355 8 20 35 35 18 20 24 148 157
182 328 305 334 124 39 144 165 45 21 11 303 290 281 242 283 237 240 259 253 276 297 315 332 314 302 299 302 310 315 319 334 344 342 342 347 8 31 35 25 22 19 352 229
133 122 283 36 198 180 141 178 94 126 154 186 299 272 215 232 229 232 255 266 282 296 334 310 321 305 293 294 300 305 308 316 327 333 327 324 341 355 6 355 354 3 334 259
179 151 267 224 104 117 214 198 159 130 222 223 162 272 237 237 251 263 279 288 291 294 307 312 311 308 286 281 289 293 297 301 306 315 324 326 317 319 324 329 316 293 286 283
180 335 336 356 7 21 227 198 161 107 80 206 154 260 272 278 284 286 287 297 303 309 310 308 309 316 306 273 278 284 287 289 291 294 300 306 315 315 307 305 288 288 289 284
161 174 197 205 216 138 225 205 196 168 174 203 229 274 270 290 303 302 301 304 308 314 318 317 312 311 307 287 271 278 281 282 281 281 284 290 298 304 302 299 298 297 291 284
133 244 196 267 269 259 259 250 213 210 219 216 282 235 272 277 289 295 299 303 304 309 313 316 317 324 317 288 268 266 271 273 275 273 271 276 283 291 299 304 305 302 299 299
55 269 17 264 268 263 263 247 235 233 237 249 262 276 275 281 293 301 305 310 309 299 302 304 308 323 322 304 276 260 262 265 266 266 265 262 263 268 274 278 281 287 292 293
165 192 15 273 325 300 284 235 194 199 213 222 239 246 289 291 288 299 311 319 318 319 305 292 300 323 326 315 283 261 257 258 259 261 261 262 264 267 270 272 274 276 280 280
156 152 173 279 336 315 241 248 191 195 218 215 245 264 267 269 287 303 322 339 336 331 317 294 299 322 329 317 299 271 250 250 255 256 256 256 258 260 264 269 275 277 273 269
194 151 236 248 259 292 293 166 149 179 281 219 226 252 269 287 297 296 318 317 321 319 317 279 298 315 322 312 298 275 257 248 250 253 254 253 252 253 257 263 271 277 281 283
128 129 184 142 216 254 259 166 144 175 291 194 189 227 253 305 302 310 324 321 325 322 310 289 294 304 310 310 295 277 264 252 248 252 255 252 250 251 254 257 262 268 276 278
118 167 216 220 260 281 255 224 343 76 246 246 212 273 277 240 280 306 319 321 318 322 315 310 297 297 296 299 292 286 275 261 256 251 251 247 246 247 249 251 258 263 264 265
179 161 193 184 213 271 189 92 183 295 341 313 316 314 309 305 310 316 318 313 312 309 296 302 312 301 296 287 285 285 281 280 259 249 248 245 244 244 244 246 249 253 256 259
249 204 193 196 214 302 223 263 284 300 303 311 317 320 319 310 306 307 306 309 308 307 299 299 304 297 296 282 278 278 290 278 261 248 247 247 245 243 242 243 246 248 252 256
251 244 227 172 241 261 289 301 305 311 318 323 318 312 310 304 303 300 299 302 305 306 303 303 306 298 301 295 276 275 281 268 260 252 247 248 245 244 241 241 243 245 249 254
227 339 263 253 279 282 288 308 313 309 306 310 310 308 303 301 299 297 297 297 299 299 301 302 297 295 293 294 284 279 279 268 260 255 249 246 245 243 242 242 245 249 249 251
228 253 262 273 285 296 300 301 302 304 309 309 311 308 308 305 298 297 296 299 299 302 304 301 301 301 295 278 277 279 275 274 266 260 252 245 242 240 239 238 239 243 246 250
Height
1539 1550 1563 1556 1554 1555 1558 1559 1559 1554 1549 1548 1541 1534 1518 1513 1513 1510 1508 1507 1507 1507 1507 1505 1504 1502 1499 1497 1492 1487 1482 1477 1471 1466 1461 1458 1455 1454 1454 1455 1456 1457 1457 1459
1548 1558 1556 1555 1555 1556 1557 1559 1557 1551 1549 1550 1541 1528 1514 1510 1507 1507 1506 1505 1505 1504 1503 1503 1502 1500 1497 1493 1490 1485 1480 1475 1470 1465 1460 1455 1451 1449 1447 1447 1449 1450 1451 1453
1554 1556 1555 1555 1555 1555 1556 1556 1555 1559 1551 1547 1547 1527 1513 1508 1506 1504 1504 1503 1502 1501 1500 1500 1499 1498 1494 1491 1487 1482 1477 1473 1468 1464 1459 1455 1452 1448 1445 1444 1445 1446 1447 1447
1554 1554 1554 1555 1554 1555 1554 1553 1553 1555 1560 1565 1551 1542 1516 1510 1507 1502 1499 1499 1497 1497 1498 1498 1497 1494 1491 1488 1485 1480 1475 1471 1467 1462 1458 1454 1451 1448 1445 1443 1442 1442 1443 1443
1554 1554 1554 1553 1551 1552 1554 1552 1554 1554 1560 1566 1550 1564 1516 1512 1504 1500 1497 1496 1495 1495 1495 1494 1493 1490 1488 1485 1482 1478 1474 1470 1466 1462 1458 1454 1451 1448 1445 1443 1442 1441 1441 1440
1553 1552 1553 1552 1552 1552 1552 1554 1559 1560 1561 1575 1551 1558 1524 1515 1505 1497 1496 1494 1493 1492 1492 1490 1489 1488 1486 1483 1480 1476 1472 1469 1465 1461 1458 1455 1451 1448 1445 1443 1442 1441 1441 1440
1556 1553 1552 1552 1553 1552 1555 1569 1582 1570 1573 1556 1556 1565 1517 1498 1496 1494 1492 1490 1490 1489 1488 1487 1486 1485 1483 1480 1477 1474 1471 1467 1464 1460 1457 1455 1452 1448 1446 1444 1443 1442 1441 1441
1572 1565 1552 1552 1553 1558 1559 1565 1582 1569 1578 1570 1554 1550 1510 1492 1490 1489 1488 1488 1487 1487 1486 1485 1483 1481 1479 1477 1474 1472 1469 1466 1462 1459 1457 1454 1452 1449 1447 1445 1444 1443 1442 1442
1566 1556 1552 1552 1552 1554 1557 1567 1562 1572 1576 1574 1560 1531 1498 1489 1487 1485 1486 1487 1486 1485 1484 1482 1480 1478 1476 1474 1471 1469 1466 1464 1461 1458 1456 1454 1452 1451 1448 1447 1446 1445 1444 1444
1558 1566 1552 1551 1551 1554 1553 1558 1566 1575 1570 1565 1554 1546 1527 1497 1487 1485 1485 1484 1483 1482 1480 1478 1476 1475 1473 1471 1469 1467 1465 1463 1460 1458 1455 1453 1452 1450 1449 1448 1447 1446 1446 1446
1556 1562 1556 1552 1552 1553 1557 1558 1562 1567 1570 1572 1572 1531 1499 1495 1487 1485 1483 1482 1480 1479 1478 1476 1473 1470 1469 1467 1466 1465 1463 1462 1460 1457 1455 1453 1452 1451 1449 1448 1447 1446 1445 1445
1555 1563 1569 1552 1549 1549 1549 1551 1555 1564 1560 1569 1568 1531 1485 1484 1483 1484 1482 1481 1479 1477 1474 1471 1468 1466 1464 1464 1463 1462 1460 1459 1457 1456 1454 1452 1451 1450 1449 1448 1447 1446 1445 1445
1555 1562 1575 1553 1553 1549 1549 1548 1549 1556 1560 1561 1566 1517 1483 1484 1483 1482 1481 1478 1475 1471 1467 1465 1463 1461 1459 1458 1458 1457 1456 1456 1455 1454 1452 1451 1450 1449 1447 1447 1446 1445 1444 1443
1551 1560 1558 1563 1541 1545 1546 1544 1547 1547 1562 1547 1526 1498 1482 1480 1481 1477 1475 1473 1470 1466 1462 1460 1459 1457 1455 1454 1454 1453 1453 1452 1452 1451 1450 1450 1449 1447 1446 1444 1443 1443 1442 1441
1553 1557 1559 1552 1547 1545 1541 1539 1540 1543 1532 1533 1500 1506 1479 1484 1482 1476 1472 1468 1464 1460 1458 1456 1454 1453 1450 1448 1447 1447 1447 1446 1447 1446 1446 1447 1446 1446 1445 1444 1443 1442 1440 1439
1554 1555 1554 1554 1541 1542 1536 1526 1527 1527 1524 1520 1508 1497 1482 1478 1478 1473 1468 1465 1461 1457 1455 1453 1451 1448 1446 1443 1441 1442 1442 1441 1441 1441 1441 1441 1441 1441 1440 1440 1439 1439 1440 1439
1553 1555 1556 1549 1541 1538 1525 1506 1510 1513 1510 1506 1511 1479 1478 1475 1473 1470 1464 1461 1457 1453 1451 1450 1448 1445 1441 1438 1436 1434 1436 1436 1435 1436 1436 1436 1437 1437 1438 1437 1437 1436 1436 1436
1550 1553 1554 1552 1544 1535 1490 1492 1494 1496 1493 1491 1483 1479 1476 1473 1469 1466 1463 1459 1455 1451 1447 1445 1444 1440 1437 1434 1431 1430 1430 1430 1430 1430 1431 1431 1431 1432 1432 1432 1433 1432 1432 1431
1541 1545 1547 1553 1556 1518 1480 1489 1493 1495 1480 1472 1476 1474 1472 1469 1466 1460 1460 1457 1453 1449 1444 1440 1439 1436 1432 1429 1427 1425 1424 1424 1423 1424 1425 1426 1426 1426 1427 1427 1428 1428 1427 1428
1541 1543 1545 1555 1545 1520 1482 1484 1485 1487 1487 1466 1469 1469 1467 1466 1466 1455 1453 1450 1446 1443 1439 1436 1434 1431 1428 1426 1422 1419 1417 1416 1416 1417 1418 1420 1421 1422 1423 1424 1424 1424 1424 1425
1544 1546 1539 1542 1545 1515 1485 1483 1484 1490 1481 1467 1467 1466 1465 1464 1460 1451 1448 1445 1441 1437 1431 1429 1427 1423 1420 1418 1415 1413 1412 1409 1410 1411 1413 1414 1414 1416 1418 1419 1420 1421 1420 1420
1527 1535 1538 1539 1540 1524 1480 1482 1484 1474 1469 1468 1466 1463 1458 1455 1450 1445 1440 1436 1432 1428 1424 1420 1417 1414 1412 1411 1408 1405 1403 1405 1405 1407 1407 1406 1407 1409 1411 1413 1414 1414 1415 1415
1520 1509 1515 1512 1501 1482 1481 1476 1474 1472 1469 1467 1463 1459 1455 1450 1446 1442 1434 1428 1423 1420 1415 1412 1409 1404 1403 1401 1400 1397 1397 1398 1398 1398 1400 1402 1403 1403 1405 1406 1408 1408 1409 1410
1505 1500 1501 1496 1480 1477 1474 1473 1472 1471 1467 1464 1462 1456 1450 1441 1435 1428 1424 1420 1415 1410 1406 1403 1399 1396 1394 1393 1391 1389 1388 1388 1389 1390 1391 1394 1396 1398 1399 1400 1401 1402 1403 1404
1502 1498 1488 1484 1479 1472 1472 1471 1469 1465 1461 1457 1453 1449 1442 1434 1426 1420 1414 1408 1405 1401 1397 1394 1390 1387 1385 1385 1384 1384 1383 1382 1381 1380 1382 1384 1387 1389 1391 1394 1397 1398 1398 1398
1498 1489 1485 1470 1473 1472 1469 1468 1464 1456 1452 1449 1444 1437 1432 1426 1418 1412 1406 1402 1397 1391 1387 1383 1381 1379 1376 1373 1374 1375 1375 1375 1375 1375 1373 1373 1376 1379 1383 1386 1389 1391 1393 1393